| time (UTC) | temp C | wind direction | speed KPH | gust KPH | rain 1hr cm | rain 24hr cm | rain mn cm | humidity % | barometer mb |
| 20260510011517 | 22 | 280 | 1.6 | 3.2 | 0.00 | 0.05 | 0.00 | 81 | 1011.4 |
| 20260510011018 | 22 | 343 | 0.0 | 3.2 | 0.00 | 0.05 | 0.00 | 81 | 1011.4 |
| 20260510005517 | 22 | 293 | 1.6 | 4.8 | 0.00 | 0.05 | 0.00 | 80 | 1011.5 |
| 20260510005017 | 22 | 350 | 1.6 | 4.8 | 0.00 | 0.05 | 0.00 | 80 | 1011.5 |
| 20260510004518 | 23 | 336 | 1.6 | 8.0 | 0.00 | 0.05 | 0.00 | 80 | 1011.4 |
| 20260510003518 | 23 | 77 | 1.6 | 8.0 | 0.00 | 0.05 | 0.00 | 80 | 1011.3 |
| 20260510002517 | 23 | 288 | 3.2 | 9.7 | 0.00 | 0.05 | 0.00 | 79 | 1011.1 |
| 20260510002018 | 23 | 348 | 1.6 | 11.3 | 0.00 | 0.05 | 0.00 | 79 | 1010.9 |
| 20260510001517 | 24 | 26 | 3.2 | 4.8 | 0.00 | 0.05 | 0.00 | 79 | 1010.8 |
| 20260510001018 | 24 | 82 | 1.6 | 8.0 | 0.00 | 0.05 | 0.00 | 79 | 1010.7 |
| 20260510000518 | 24 | 234 | 3.2 | 9.7 | 0.00 | 0.05 | 0.00 | 78 | 1010.7 |
| 20260510000018 | 25 | 294 | 3.2 | 11.3 | 0.00 | 0.05 | 0.00 | 79 | 1010.6 |
| 20260509235518 | 25 | 23 | 3.2 | 14.5 | 0.00 | 0.05 | 0.00 | 80 | 1010.3 |
| 20260509235018 | 25 | 22 | 0.0 | 4.8 | 0.00 | 0.05 | 0.00 | 79 | 1010.2 |
| 20260509234518 | 25 | 19 | 1.6 | 4.8 | 0.00 | 0.05 | 0.00 | 79 | 1010.1 |
| 20260509234018 | 25 | 32 | 1.6 | 3.2 | 0.00 | 0.05 | 0.00 | 79 | 1010.1 |
| 20260509231518 | 25 | 337 | 1.6 | 4.8 | 0.00 | 0.05 | 0.00 | 77 | 1010.2 |
| 20260509231018 | 26 | 53 | 0.0 | 1.6 | 0.00 | 0.05 | 0.00 | 77 | 1010.1 |
| 20260509230017 | 26 | 203 | 1.6 | 4.8 | 0.00 | 0.05 | 0.00 | 77 | 1010.1 |
| 20260509225517 | 26 | 136 | 0.0 | 3.2 | 0.00 | 0.05 | 0.00 | 76 | 1010.2 |
| 20260509225018 | 26 | 24 | 0.0 | 3.2 | 0.00 | 0.05 | 0.00 | 76 | 1010.2 |
| 20260509224518 | 26 | 24 | 1.6 | 4.8 | 0.00 | 0.05 | 0.00 | 76 | 1010.2 |
| 20260509224018 | 26 | 49 | 0.0 | 3.2 | 0.00 | 0.05 | 0.00 | 77 | 1010.2 |
| 20260509223517 | 26 | 49 | 1.6 | 4.8 | 0.00 | 0.05 | 0.00 | 77 | 1010.2 |
| 20260509223017 | 26 | 49 | 1.6 | 4.8 | 0.00 | 0.05 | 0.00 | 77 | 1010.1 |
| 20260509221018 | 26 | 69 | 0.0 | 3.2 | 0.00 | 0.05 | 0.00 | 77 | 1009.9 |
| 20260509220518 | 26 | 67 | 1.6 | 4.8 | 0.00 | 0.05 | 0.00 | 77 | 1009.9 |
| 20260509220017 | 26 | 15 | 4.8 | 8.0 | 0.00 | 0.05 | 0.00 | 76 | 1009.9 |
| 20260509215518 | 26 | 24 | 3.2 | 4.8 | 0.00 | 0.05 | 0.00 | 77 | 1009.9 |
| 20260509215017 | 25 | 10 | 1.6 | 8.0 | 0.00 | 0.05 | 0.00 | 76 | 1010.0 |
| 20260509214517 | 26 | 30 | 1.6 | 8.0 | 0.00 | 0.05 | 0.00 | 76 | 1010.0 |
| 20260509214018 | 25 | 32 | 0.0 | 4.8 | 0.00 | 0.05 | 0.00 | 75 | 1010.0 |
| 20260509213517 | 26 | 42 | 0.0 | 4.8 | 0.00 | 0.05 | 0.00 | 76 | 1010.1 |
| 20260509213017 | 26 | 42 | 1.6 | 3.2 | 0.00 | 0.05 | 0.00 | 78 | 1010.1 |
| 20260509212517 | 26 | 42 | 1.6 | 4.8 | 0.00 | 0.05 | 0.00 | 79 | 1010.2 |
| 20260509212018 | 26 | 48 | 1.6 | 3.2 | 0.00 | 0.05 | 0.00 | 78 | 1010.2 |
| 20260509211518 | 26 | 49 | 1.6 | 3.2 | 0.00 | 0.05 | 0.00 | 79 | 1010.4 |
| 20260509211017 | 25 | 48 | 3.2 | 4.8 | 0.00 | 0.05 | 0.00 | 78 | 1010.4 |
| 20260509210517 | 25 | 36 | 1.6 | 4.8 | 0.00 | 0.05 | 0.00 | 79 | 1010.4 |
| 20260509210018 | 25 | 38 | 1.6 | 4.8 | 0.00 | 0.05 | 0.00 | 78 | 1010.4 |
| 20260509205518 | 25 | 40 | 1.6 | 3.2 | 0.00 | 0.05 | 0.00 | 79 | 1010.4 |
| 20260509204017 | 25 | 26 | 0.0 | 3.2 | 0.00 | 0.05 | 0.00 | 78 | 1010.6 |
| 20260509203518 | 25 | 26 | 1.6 | 3.2 | 0.00 | 0.05 | 0.00 | 80 | 1010.6 |
| 20260509203017 | 25 | 21 | 0.0 | 8.0 | 0.00 | 0.05 | 0.00 | 79 | 1010.6 |
| 20260509202517 | 25 | 42 | 1.6 | 4.8 | 0.00 | 0.05 | 0.00 | 81 | 1010.6 |
| 20260509202017 | 25 | 49 | 1.6 | 3.2 | 0.00 | 0.05 | 0.00 | 83 | 1010.7 |
| 20260509201517 | 24 | 49 | 1.6 | 3.2 | 0.00 | 0.05 | 0.00 | 83 | 1010.7 |
| 20260509201017 | 24 | 49 | 0.0 | 0.0 | 0.00 | 0.05 | 0.00 | 82 | 1010.8 |
| 20260509200018 | 24 | 50 | 1.6 | 4.8 | 0.00 | 0.05 | 0.00 | 83 | 1010.9 |
| 20260509195518 | 24 | 34 | 3.2 | 4.8 | 0.00 | 0.05 | 0.00 | 83 | 1011.0 |
| 20260509195018 | 23 | 84 | 1.6 | 4.8 | 0.00 | 0.05 | 0.00 | 84 | 1011.0 |
| 20260509194518 | 23 | 82 | 1.6 | 4.8 | 0.00 | 0.05 | 0.00 | 83 | 1011.1 |
| 20260509194018 | 23 | 23 | 3.2 | 4.8 | 0.00 | 0.05 | 0.00 | 84 | 1011.0 |
| 20260509193518 | 23 | 337 | 0.0 | 1.6 | 0.00 | 0.05 | 0.00 | 85 | 1011.1 |
| 20260509192518 | 22 | 279 | 0.0 | 1.6 | 0.00 | 0.05 | 0.00 | 87 | 1011.1 |
| 20260509192018 | 22 | 279 | 1.6 | 3.2 | 0.00 | 0.05 | 0.00 | 87 | 1011.1 |
| 20260509190518 | 22 | 271 | 0.0 | 3.2 | 0.00 | 0.05 | 0.00 | 87 | 1011.4 |
| 20260509190018 | 22 | 271 | 0.0 | 1.6 | 0.00 | 0.05 | 0.00 | 87 | 1011.5 |
| 20260509185517 | 22 | 271 | 0.0 | 1.6 | 0.00 | 0.05 | 0.00 | 87 | 1011.5 |
| 20260509185018 | 22 | 270 | 0.0 | 0.0 | 0.00 | 0.05 | 0.00 | 87 | 1011.5 |
| 20260509184517 | 22 | 270 | 0.0 | 0.0 | 0.00 | 0.05 | 0.00 | 87 | 1011.5 |
| 20260509184018 | 22 | 270 | 0.0 | 4.8 | 0.00 | 0.05 | 0.00 | 87 | 1011.5 |
| 20260509183517 | 22 | 270 | 0.0 | 0.0 | 0.00 | 0.05 | 0.00 | 87 | 1011.6 |
| 20260509183018 | 22 | 270 | 0.0 | 1.6 | 0.00 | 0.05 | 0.00 | 87 | 1011.5 |
| 20260509182517 | 22 | 270 | 0.0 | 1.6 | 0.00 | 0.05 | 0.00 | 87 | 1011.5 |
| 20260509182018 | 22 | 270 | 0.0 | 1.6 | 0.00 | 0.05 | 0.00 | 87 | 1011.6 |
| 20260509181517 | 22 | 270 | 0.0 | 3.2 | 0.00 | 0.05 | 0.00 | 87 | 1011.7 |
| 20260509181018 | 22 | 8 | 0.0 | 3.2 | 0.00 | 0.05 | 0.00 | 87 | 1011.6 |
| 20260509180517 | 22 | 14 | 3.2 | 4.8 | 0.00 | 0.05 | 0.00 | 87 | 1011.5 |
| 20260509180018 | 22 | 14 | 0.0 | 0.0 | 0.00 | 0.05 | 0.00 | 88 | 1011.6 |
| 20260509175518 | 22 | 14 | 0.0 | 0.0 | 0.00 | 0.05 | 0.00 | 88 | 1011.7 |
| 20260509175017 | 22 | 14 | 0.0 | 0.0 | 0.00 | 0.05 | 0.00 | 89 | 1011.8 |
| 20260509174518 | 22 | 5 | 0.0 | 0.0 | 0.00 | 0.05 | 0.00 | 89 | 1012.0 |
| 20260509174018 | 22 | 5 | 0.0 | 0.0 | 0.00 | 0.05 | 0.00 | 89 | 1012.0 |
| 20260509173518 | 22 | 5 | 0.0 | 0.0 | 0.00 | 0.05 | 0.00 | 89 | 1012.1 |
| 20260509173018 | 22 | 324 | 0.0 | 0.0 | 0.00 | 0.05 | 0.00 | 89 | 1012.1 |
| 20260509172518 | 22 | 302 | 0.0 | 1.6 | 0.00 | 0.05 | 0.00 | 90 | 1012.0 |
| 20260509172018 | 21 | 302 | 1.6 | 4.8 | 0.00 | 0.05 | 0.00 | 90 | 1012.1 |
| 20260509171517 | 21 | 334 | 1.6 | 1.6 | 0.00 | 0.05 | 0.00 | 90 | 1012.2 |
| 20260509171017 | 21 | 333 | 0.0 | 1.6 | 0.00 | 0.05 | 0.00 | 90 | 1012.2 |
| 20260509170517 | 21 | 324 | 0.0 | 3.2 | 0.00 | 0.05 | 0.00 | 90 | 1012.3 |
| 20260509170017 | 21 | 313 | 0.0 | 0.0 | 0.00 | 0.05 | 0.00 | 90 | 1012.3 |
| 20260509165517 | 21 | 313 | 0.0 | 0.0 | 0.00 | 0.05 | 0.00 | 90 | 1012.2 |
| 20260509165017 | 21 | 313 | 0.0 | 0.0 | 0.00 | 0.05 | 0.00 | 90 | 1012.3 |
| 20260509164517 | 21 | 312 | 0.0 | 0.0 | 0.00 | 0.05 | 0.00 | 90 | 1012.2 |
| 20260509164018 | 21 | 313 | 0.0 | 0.0 | 0.00 | 0.05 | 0.00 | 90 | 1012.3 |
| 20260509163518 | 21 | 312 | 0.0 | 0.0 | 0.00 | 0.05 | 0.00 | 90 | 1012.3 |
| 20260509163017 | 21 | 313 | 0.0 | 0.0 | 0.00 | 0.05 | 0.00 | 90 | 1012.2 |
| 20260509162517 | 21 | 313 | 0.0 | 0.0 | 0.00 | 0.05 | 0.00 | 90 | 1012.1 |
| 20260509162017 | 20 | 313 | 0.0 | 0.0 | 0.00 | 0.05 | 0.00 | 90 | 1012.1 |
| 20260509161017 | 20 | 312 | 0.0 | 0.0 | 0.00 | 0.05 | 0.00 | 90 | 1012.0 |
| 20260509160518 | 20 | 312 | 0.0 | 0.0 | 0.00 | 0.05 | 0.00 | 90 | 1011.9 |
| 20260509160017 | 20 | 312 | 0.0 | 0.0 | 0.00 | 0.05 | 0.00 | 90 | 1011.9 |
| 20260509155517 | 20 | 312 | 0.0 | 0.0 | 0.00 | 0.05 | 0.00 | 90 | 1011.9 |
| 20260509155018 | 20 | 312 | 0.0 | 0.0 | 0.00 | 0.05 | 0.00 | 90 | 1011.8 |
| 20260509154517 | 20 | 312 | 0.0 | 0.0 | 0.00 | 0.05 | 0.00 | 90 | 1011.8 |
| 20260509154017 | 20 | 312 | 0.0 | 0.0 | 0.00 | 0.05 | 0.00 | 90 | 1011.7 |
| 20260509153018 | 20 | 312 | 0.0 | 0.0 | 0.00 | 0.05 | 0.00 | 90 | 1011.5 |
| 20260509152517 | 20 | 312 | 0.0 | 0.0 | 0.00 | 0.05 | 0.00 | 90 | 1011.5 |
| 20260509152018 | 20 | 312 | 0.0 | 0.0 | 0.00 | 0.05 | 0.00 | 90 | 1011.6 |
| 20260509151518 | 20 | 312 | 0.0 | 0.0 | 0.00 | 0.05 | 0.00 | 90 | 1011.5 |
| 20260509151017 | 20 | 311 | 0.0 | 0.0 | 0.00 | 0.05 | 0.00 | 90 | 1011.4 |
| 20260509150517 | 20 | 312 | 0.0 | 0.0 | 0.00 | 0.05 | 0.00 | 90 | 1011.5 |
| 20260509150017 | 20 | 311 | 0.0 | 0.0 | 0.00 | 0.05 | 0.00 | 90 | 1011.6 |
| 20260509145518 | 20 | 311 | 0.0 | 0.0 | 0.00 | 0.05 | 0.00 | 90 | 1011.7 |
| 20260509145017 | 20 | 312 | 0.0 | 0.0 | 0.00 | 0.05 | 0.00 | 90 | 1011.8 |
| 20260509144517 | 19 | 311 | 0.0 | 0.0 | 0.00 | 0.05 | 0.00 | 90 | 1011.9 |
| 20260509144017 | 19 | 311 | 0.0 | 1.6 | 0.00 | 0.05 | 0.00 | 90 | 1011.9 |
| 20260509143018 | 19 | 311 | 0.0 | 0.0 | 0.00 | 0.05 | 0.00 | 90 | 1012.1 |
| 20260509142517 | 19 | 311 | 0.0 | 3.2 | 0.00 | 0.05 | 0.00 | 90 | 1012.0 |
| 20260509142018 | 19 | 312 | 1.6 | 3.2 | 0.00 | 0.05 | 0.00 | 90 | 1012.0 |
| 20260509141517 | 19 | 312 | 0.0 | 1.6 | 0.00 | 0.05 | 0.00 | 90 | 1012.0 |
| 20260509141018 | 19 | 312 | 1.6 | 3.2 | 0.00 | 0.05 | 0.00 | 90 | 1012.0 |
| 20260509140518 | 19 | 312 | 0.0 | 3.2 | 0.00 | 0.05 | 0.00 | 90 | 1012.1 |
| 20260509060534 | 21 | 63 | 0.0 | 3.2 | 0.00 | 0.00 | 0.00 | 85 | 1012.9 |
| 20260509055533 | 20 | 64 | 0.0 | 0.0 | 0.00 | 0.00 | 0.00 | 84 | 1011.6 |
| 20260509055033 | 20 | 64 | 0.0 | 0.0 | 0.00 | 0.00 | 0.00 | 84 | 1011.6 |
| 20260509054533 | 20 | 64 | 0.0 | 0.0 | 0.00 | 0.00 | 0.00 | 84 | 1011.8 |
| 20260509053533 | 20 | 64 | 1.6 | 3.2 | 0.00 | 0.00 | 0.00 | 84 | 1012.1 |
| 20260509053033 | 20 | 64 | 0.0 | 1.6 | 0.00 | 0.00 | 0.00 | 84 | 1012.2 |
| 20260509052532 | 20 | 64 | 0.0 | 0.0 | 0.00 | 0.00 | 0.00 | 84 | 1012.0 |
| 20260509051533 | 20 | 57 | 0.0 | 0.0 | 0.00 | 0.00 | 0.00 | 84 | 1011.5 |
| 20260509051034 | 20 | 57 | 0.0 | 4.8 | 0.00 | 0.00 | 0.00 | 84 | 1011.6 |
| 20260509050534 | 21 | 297 | 0.0 | 4.8 | 0.00 | 0.00 | 0.00 | 84 | 1011.6 |
| 20260509045534 | 21 | 251 | 1.6 | 9.7 | 0.00 | 0.00 | 0.00 | 83 | 1011.6 |
| 20260509045034 | 21 | 267 | 0.0 | 0.0 | 0.00 | 0.00 | 0.00 | 83 | 1011.6 |
| 20260509044034 | 21 | 267 | 1.6 | 3.2 | 0.00 | 0.00 | 0.00 | 83 | 1011.6 |
| 20260509043533 | 21 | 267 | 0.0 | 3.2 | 0.00 | 0.00 | 0.00 | 83 | 1011.7 |
| 20260509043034 | 21 | 267 | 1.6 | 3.2 | 0.00 | 0.00 | 0.00 | 83 | 1011.8 |
| 20260509042533 | 21 | 340 | 0.0 | 3.2 | 0.00 | 0.00 | 0.00 | 83 | 1011.9 |
| 20260509042034 | 21 | 346 | 0.0 | 1.6 | 0.00 | 0.00 | 0.00 | 83 | 1012.0 |
| 20260509041533 | 21 | 346 | 0.0 | 0.0 | 0.00 | 0.00 | 0.00 | 83 | 1012.2 |
| 20260509041033 | 21 | 346 | 0.0 | 0.0 | 0.00 | 0.00 | 0.00 | 83 | 1012.3 |
| 20260509040533 | 21 | 346 | 0.0 | 1.6 | 0.00 | 0.00 | 0.00 | 83 | 1012.3 |
| 20260509040033 | 21 | 5 | 0.0 | 3.2 | 0.00 | 0.00 | 0.00 | 83 | 1012.2 |
| 20260509035533 | 20 | 30 | 1.6 | 1.6 | 0.00 | 0.00 | 0.00 | 83 | 1012.2 |
| 20260509034533 | 20 | 71 | 1.6 | 4.8 | 0.00 | 0.00 | 0.00 | 84 | 1012.1 |
| 20260509034034 | 20 | 275 | 0.0 | 4.8 | 0.00 | 0.00 | 0.00 | 83 | 1011.9 |
| 20260509033532 | 20 | 134 | 1.6 | 4.8 | 0.00 | 0.00 | 0.00 | 83 | 1011.9 |
| 20260509033033 | 20 | 16 | 0.0 | 1.6 | 0.00 | 0.00 | 0.00 | 83 | 1011.8 |
| 20260509032532 | 20 | 16 | 0.0 | 1.6 | 0.00 | 0.00 | 0.00 | 83 | 1011.8 |
| 20260509031534 | 20 | 17 | 0.0 | 0.0 | 0.00 | 0.00 | 0.00 | 82 | 1011.8 |
| 20260509030533 | 20 | 17 | 1.6 | 3.2 | 0.00 | 0.00 | 0.00 | 82 | 1011.6 |
| 20260509030032 | 20 | 17 | 0.0 | 3.2 | 0.00 | 0.00 | 0.00 | 82 | 1011.4 |
| 20260509025533 | 20 | 17 | 0.0 | 1.6 | 0.00 | 0.00 | 0.00 | 81 | 1011.1 |
| 20260509024532 | 20 | 17 | 0.0 | 3.2 | 0.00 | 0.00 | 0.00 | 80 | 1011.0 |
| 20260509023033 | 20 | 17 | 1.6 | 3.2 | 0.00 | 0.00 | 0.00 | 79 | 1010.7 |
| 20260509022033 | 20 | 326 | 0.0 | 0.0 | 0.00 | 0.00 | 0.00 | 78 | 1010.5 |
| 20260509021032 | 20 | 326 | 0.0 | 0.0 | 0.00 | 0.00 | 0.00 | 77 | 1010.6 |
| 20260509015533 | 20 | 327 | 0.0 | 0.0 | 0.00 | 0.00 | 0.00 | 77 | 1010.6 |
| 20260509015033 | 20 | 326 | 0.0 | 0.0 | 0.00 | 0.00 | 0.00 | 78 | 1010.7 |
| 20260509014532 | 20 | 327 | 0.0 | 0.0 | 0.00 | 0.00 | 0.00 | 77 | 1010.6 |
| 20260509013534 | 20 | 326 | 0.0 | 0.0 | 0.00 | 0.00 | 0.00 | 76 | 1010.6 |
| 20260509013032 | 20 | 326 | 0.0 | 0.0 | 0.00 | 0.00 | 0.00 | 75 | 1010.5 |
| 20260509012533 | 20 | 326 | 0.0 | 0.0 | 0.00 | 0.00 | 0.00 | 75 | 1010.5 |
| 20260509012032 | 20 | 326 | 0.0 | 1.6 | 0.00 | 0.00 | 0.00 | 75 | 1010.6 |